Hourly Weather Czyzowka

Today, 18 January, Monday

Time Temperature Precipitation Wind Pressure Humidity
00:00 -14°C° 0 mm 1 mps 753 mmHg 91%
01:00 -14°C° 0 mm 1 mps 753 mmHg 92%
02:00 -14°C° 0 mm 1 mps 753 mmHg 92%
03:00 -14°C° 0 mm 1 mps 753 mmHg 92%
04:00 -14°C° 0 mm 1 mps 753 mmHg 92%
05:00 -14°C° 0 mm 1 mps 753 mmHg 92%
06:00 -14°C° 0 mm 1 mps 753 mmHg 92%
07:00 -15°C° 0 mm 0 mps 753 mmHg 91%
08:00 -14°C° 0 mm 1 mps 753 mmHg 88%
09:00 -13°C° 0 mm 1 mps 753 mmHg 85%
10:00 -12°C° 0 mm 1 mps 753 mmHg 83%
11:00 -11°C° 0 mm 1 mps 753 mmHg 81%
12:00 -11°C° 0 mm 1 mps 753 mmHg 79%
13:00 -10°C° 0 mm 1 mps 753 mmHg 77%
14:00 -10°C° 0 mm 1 mps 753 mmHg 80%
15:00 -10°C° 0 mm 1 mps 752 mmHg 83%
16:00 -11°C° 0 mm 0 mps 752 mmHg 86%
17:00 -11°C° 0 mm 1 mps 752 mmHg 86%
18:00 -11°C° 0 mm 1 mps 752 mmHg 87%
19:00 -11°C° 0 mm 1 mps 752 mmHg 88%
20:00 -13°C° 0 mm 2 mps 752 mmHg 88%
21:00 -13°C° 0 mm 2 mps 751 mmHg 88%
22:00 -13°C° 0 mm 2 mps 751 mmHg 88%
23:00 -12°C° 0 mm 2 mps 751 mmHg 88%

Tomorrow, 19 January, Tuesday

Time Temperature Precipitation Wind Pressure Humidity
00:00 -12°C° 0 mm 2 mps 751 mmHg 88%
01:00 -12°C° 0 mm 2 mps 751 mmHg 88%
02:00 -12°C° 0 mm 2 mps 750 mmHg 89%
03:00 -10°C° 0 mm 2 mps 750 mmHg 90%
04:00 -12°C° 0 mm 3 mps 749 mmHg 91%
05:00 -10°C° 0.1 mm 3 mps 749 mmHg 92%
06:00 -9°C° 0.1 mm 3 mps 749 mmHg 94%
07:00 -8°C° 0.1 mm 3 mps 748 mmHg 95%
08:00 -8°C° 0.2 mm 4 mps 748 mmHg 95%
09:00 -5°C° 0.2 mm 4 mps 748 mmHg 95%
10:00 -4°C° 0.2 mm 4 mps 748 mmHg 95%
11:00 -3°C° 0.2 mm 4 mps 747 mmHg 95%
12:00 -2°C° 0.2 mm 4 mps 747 mmHg 96%
13:00 -2°C° 0.2 mm 4 mps 746 mmHg 97%
14:00 -2°C° 0.1 mm 4 mps 746 mmHg 96%
15:00 -2°C° 0.1 mm 4 mps 746 mmHg 96%
16:00 -1°C° 0.1 mm 3 mps 745 mmHg 95%
17:00 -1°C° 0.1 mm 3 mps 745 mmHg 96%
18:00 -2°C° 0.1 mm 4 mps 745 mmHg 96%
19:00 -3°C° 0.1 mm 4 mps 745 mmHg 96%
20:00 -3°C° 0.1 mm 4 mps 744 mmHg 96%
21:00 -3°C° 0.1 mm 4 mps 744 mmHg 95%
22:00 -3°C° 0.1 mm 4 mps 744 mmHg 94%
23:00 -3°C° 0.2 mm 4 mps 744 mmHg 95%

Day after tomorrow, 20 January, Wednesday

Time Temperature Precipitation Wind Pressure Humidity
00:00 -4°C° 0.2 mm 5 mps 743 mmHg 95%
01:00 -4°C° 0.2 mm 5 mps 743 mmHg 96%
02:00 -4°C° 0.6 mm 5 mps 743 mmHg 96%
03:00 -2°C° 0.6 mm 5 mps 742 mmHg 96%
04:00 -2°C° 0.6 mm 5 mps 742 mmHg 96%
05:00 -1°C° 0.4 mm 5 mps 742 mmHg 96%
06:00 -1°C° 0.4 mm 5 mps 742 mmHg 97%
07:00 0°C° 0.4 mm 5 mps 742 mmHg 98%
08:00 0°C° 0 mm 5 mps 742 mmHg 98%
09:00 0°C° 0 mm 5 mps 742 mmHg 98%
10:00 0°C° 0 mm 5 mps 742 mmHg 98%
11:00 0°C° 0 mm 5 mps 742 mmHg 97%
12:00 +1°C° 0 mm 5 mps 742 mmHg 96%
13:00 +1°C° 0 mm 5 mps 742 mmHg 96%
14:00 +1°C° 0 mm 5 mps 742 mmHg 92%
15:00 +1°C° 0 mm 5 mps 742 mmHg 89%
16:00 0°C° 0 mm 5 mps 742 mmHg 86%
17:00 0°C° 0 mm 5 mps 742 mmHg 84%
18:00 0°C° 0 mm 5 mps 742 mmHg 82%
19:00 0°C° 0 mm 5 mps 742 mmHg 80%
20:00 0°C° 0 mm 5 mps 742 mmHg 80%
21:00 0°C° 0 mm 4 mps 742 mmHg 80%
22:00 0°C° 0 mm 4 mps 742 mmHg 80%
23:00 -1°C° 0 mm 4 mps 742 mmHg 80%

21 January, Thursday

Time Temperature Precipitation Wind Pressure Humidity
00:00 -1°C° 0 mm 4 mps 742 mmHg 80%
01:00 -1°C° 0 mm 4 mps 742 mmHg 80%
02:00 -1°C° 0 mm 4 mps 742 mmHg 81%
03:00 -1°C° 0 mm 4 mps 742 mmHg 82%
04:00 -2°C° 0 mm 4 mps 742 mmHg 83%
05:00 -2°C° 0 mm 4 mps 742 mmHg 84%
06:00 -2°C° 0 mm 4 mps 742 mmHg 85%
07:00 -1°C° 0 mm 3 mps 742 mmHg 85%
08:00 0°C° 0 mm 3 mps 742 mmHg 86%
09:00 0°C° 0 mm 3 mps 742 mmHg 87%
10:00 +1°C° 0 mm 3 mps 742 mmHg 87%
11:00 +1°C° 0 mm 3 mps 741 mmHg 89%
12:00 +3°C° 0 mm 2 mps 741 mmHg 91%
13:00 +3°C° 0 mm 2 mps 741 mmHg 93%
14:00 +3°C° 0 mm 2 mps 740 mmHg 91%
15:00 +1°C° 0 mm 3 mps 740 mmHg 89%
16:00 +1°C° 0 mm 3 mps 740 mmHg 87%
17:00 +1°C° 0 mm 3 mps 739 mmHg 87%
18:00 0°C° 0 mm 4 mps 739 mmHg 87%
19:00 0°C° 0 mm 4 mps 739 mmHg 87%
20:00 0°C° 0 mm 4 mps 739 mmHg 87%
21:00 0°C° 0 mm 4 mps 739 mmHg 88%
22:00 0°C° 0 mm 4 mps 738 mmHg 88%
23:00 0°C° 0 mm 4 mps 738 mmHg 87%

22 January, Friday

Time Temperature Precipitation Wind Pressure Humidity
00:00 0°C° 0 mm 4 mps 738 mmHg 86%
01:00 0°C° 0 mm 4 mps 738 mmHg 84%
02:00 0°C° 0 mm 4 mps 738 mmHg 85%
03:00 +1°C° 0 mm 3 mps 738 mmHg 87%
04:00 +1°C° 0 mm 3 mps 737 mmHg 88%
05:00 +1°C° 0 mm 3 mps 737 mmHg 88%
06:00 0°C° 0 mm 4 mps 737 mmHg 88%
07:00 0°C° 0 mm 4 mps 736 mmHg 88%
08:00 +1°C° 0 mm 4 mps 736 mmHg 89%
09:00 +1°C° 0 mm 5 mps 736 mmHg 89%
10:00 +2°C° 0 mm 5 mps 735 mmHg 90%
11:00 +2°C° 0 mm 5 mps 735 mmHg 89%
12:00 +2°C° 0 mm 5 mps 735 mmHg 88%
13:00 +3°C° 0 mm 5 mps 734 mmHg 88%
14:00 +2°C° 0 mm 5 mps 734 mmHg 88%
15:00 +2°C° 0 mm 5 mps 734 mmHg 89%
16:00 +2°C° 0 mm 5 mps 734 mmHg 90%
17:00 +3°C° 0 mm 4 mps 735 mmHg 90%
18:00 +1°C° 0 mm 4 mps 735 mmHg 91%
19:00 +1°C° 0 mm 3 mps 736 mmHg 92%
20:00 +1°C° 0 mm 3 mps 736 mmHg 92%
21:00 +2°C° 0 mm 2 mps 736 mmHg 92%
22:00 +2°C° 0 mm 2 mps 736 mmHg 92%
23:00 +2°C° 0.6 mm 2 mps 737 mmHg 93%

23 January, Saturday

Time Temperature Precipitation Wind Pressure Humidity
00:00 +1°C° 0.6 mm 3 mps 737 mmHg 95%
01:00 +1°C° 0.6 mm 3 mps 737 mmHg 97%
02:00 0°C° 0.8 mm 3 mps 737 mmHg 97%
03:00 -1°C° 0.8 mm 4 mps 737 mmHg 97%
04:00 -1°C° 0.8 mm 4 mps 737 mmHg 98%
05:00 -1°C° 0.3 mm 4 mps 737 mmHg 98%
06:00 0°C° 0.3 mm 3 mps 737 mmHg 98%
07:00 0°C° 0.3 mm 3 mps 738 mmHg 98%
08:00 0°C° 0 mm 3 mps 738 mmHg 96%
09:00 0°C° 0 mm 3 mps 738 mmHg 95%
10:00 0°C° 0 mm 3 mps 738 mmHg 94%
11:00 0°C° 0 mm 3 mps 738 mmHg 93%
12:00 +1°C° 0 mm 3 mps 738 mmHg 92%
13:00 +1°C° 0 mm 3 mps 738 mmHg 91%
14:00 +1°C° 0 mm 3 mps 739 mmHg 91%
15:00 0°C° 0 mm 3 mps 739 mmHg 92%
16:00 +1°C° 0 mm 2 mps 739 mmHg 93%
17:00 +1°C° 0 mm 2 mps 739 mmHg 93%
18:00 -1°C° 0 mm 2 mps 739 mmHg 93%
19:00 -1°C° 0 mm 2 mps 739 mmHg 93%
20:00 -1°C° 0 mm 3 mps 738 mmHg 93%
21:00 -1°C° 0 mm 3 mps 738 mmHg 92%
22:00 -1°C° 0 mm 3 mps 738 mmHg 92%
23:00 -1°C° 0 mm 3 mps 738 mmHg 91%
Show more

We Need Your Consent

Meteoprog and our Service Providers may store and access personal data such as cookies, device identifiers or other similar technologies on your device and process such data to personalise content and ads, as well as provide social media features and to analyse the traffic.

  • Store and/or access information on your device

    Cookies, device identifiers or other information can be stored or accessed on your device for the purposes indicated above.

  • Personalised ads and content, ad and content measurement, audience insights, and products development

    Ads and content can be personalised based on a profile. More data can be added to better personalise ads and content. Ad and content performance can be measured. Insights about the audience who saw the ads and content can be derived. Such data can be used to develop or improve user’s experience, systems and software.

By clicking ‘I Agree’ you will allow the use of indicated cookies, device identifiers, web beacons or other similar technologies. Your settings can be changed in the browser on your device.

For certain purposes, legitimate interests may be relied on, rather than consent. You can read more about this in our Privacy and Cookie Policy.